This demonstration page uses our WeatherBlox Daily Observations layout. Learn more.

Left ArrowRight Arrow

36.19886, -115.1175

Hourly Observations for November 4, 2021

Temp ( °F °C ) Dew Point ( °F °C ) Humidity (%) Winds ( mph kmh ) Pressure ( in mb ) Visibility ( mi km ) Precip ( " mm )
12:53 am 00:53 Clear 61 16.1 35 1.7 38 38 NW 6 9 30.08 1019 10 16 0.00 0.00
1:53 am 01:53 Clear 59 15 33 0.6 38 38 NNW 5 7 30.08 1019 10 16 0.00 0.00
2:53 am 02:53 Clear 57 13.9 34 1.1 42 42 NW 7 11 30.08 1019 10 16 0.00 0.00
3:53 am 03:53 Clear 57 13.9 35 1.7 44 44 WNW 7 11 30.08 1019 10 16 0.00 0.00
4:53 am 04:53 Clear 57 13.9 36 2.2 45 45 W 5 7 30.07 1018 10 16 0.00 0.00
5:53 am 05:53 Clear 56 13.3 36 2.2 47 47 NW 5 7 30.09 1019 10 16 0.00 0.00
6:53 am 06:53 Clear 56 13.3 34 1.1 44 44 NW 5 7 30.10 1019 10 16 0.00 0.00
7:53 am 07:53 Sunny 58 14.4 36 2.2 44 44 WNW 5 7 30.12 1020 10 16 0.00 0.00
8:53 am 08:53 Sunny 65 18.3 36 2.2 34 34 Calm 30.12 1020 10 16 0.00 0.00
9:53 am 09:53 Sunny 68 20 37 2.8 32 32 SE 6 9 30.12 1020 10 16 0.00 0.00
10:53 am 10:53 Sunny 71 21.7 36 2.2 28 28 SE 5 7 30.11 1020 10 16 0.00 0.00
11:53 am 11:53 Sunny 74 23.3 34 1.1 23 23 SE 8 13 30.08 1019 10 16 0.00 0.00
12:53 pm 12:53 Sunny 76 24.4 34 1.1 22 22 E 6 9 30.04 1017 10 16 0.00 0.00
1:53 pm 13:53 Sunny 77 25 34 1.1 21 21 SE 6 9 30.01 1016 10 16 0.00 0.00
2:53 pm 14:53 Sunny 78 25.6 34 1.1 20 20 Calm 29.99 1016 10 16 0.00 0.00
3:53 pm 15:53 Sunny 78 25.6 34 1.1 20 20 SSE 3 6 29.97 1015 10 16 0.00 0.00
4:53 pm 16:53 Sunny 79 26.1 34 1.1 20 20 Calm 29.97 1015 10 16 0.00 0.00
5:53 pm 17:53 Clear 76 24.4 33 0.6 21 21 Calm 29.97 1015 10 16 0.00 0.00
6:53 pm 18:53 Clear 73 22.8 33 0.6 23 23 Calm 29.99 1016 10 16 0.00 0.00
7:53 pm 19:53 Clear 70 21.1 36 2.2 29 29 NNW 6 9 30.00 1016 10 16 0.00 0.00
8:53 pm 20:53 Clear 69 20.6 37 2.8 31 31 WSW 5 7 29.99 1016 10 16 0.00 0.00
9:53 pm 21:53 Clear 65 18.3 36 2.2 34 34 NW 8 13 30.01 1016 10 16 0.00 0.00
10:53 pm 22:53 Clear 62 16.7 35 1.7 37 37 NW 5 7 30.02 1017 10 16 0.00 0.00
11:53 pm 23:53 Clear 63 17.2 37 2.8 38 38 WNW 5 7 30.03 1017 10 16 0.00 0.00

Powered by AerisWeather